Flag for China Weather past 2 weeks in Kunming, Yunnan, China

Now
34 °F

Fog.


Feels Like: 31 °F
Forecast: 32 / 43 °F
Wind: 3 mph from Northeast

Location: Kunming Airport

Current Time: Dec 18, 2014 at 7:29:46 AM

Latest Report: Dec 18, 2014 at 7:00 AM


Visibility: 2 mi

Pressure: 30.27 "Hg

Humidity: 100%

Dew point: 34 °F

Location of KunmingLocation

Historic Weather in Kunming — Graph

°F

Kunming temperature yesterday

Maximum temperature yesterday: 34 °F (at 2:00 PM)
Minimum temperature yesterday: 30 °F (at 4:00 AM)
Average temperature yesterday: 32 °F

Past Weeks' High & Low Weather Summary

 TemperatureHumidityPressure
High68 °F (Dec 15, 4:00 PM)100% (Dec 3, 6:00 AM)30.54 "Hg (Dec 3, 6:00 AM)
Low30 °F (Dec 17, 4:00 AM)24% (Dec 14, 3:00 PM)29.98 "Hg (Dec 6, 3:00 PM)
Average46 °F81%30.23 "Hg
* Reported Dec 3 6:00 AM — Dec 18 6:00 AM, Kunming, Weather by CustomWeather, © 2014

Note: Actual official high and low records may vary slightly from our data, if they occured in-between our weather recording intervals... More about our weather records

Advertising

Kunming weather history for previous 24 hours

 ConditionsComfort  
Time TempWeatherWind HumidityBarometerVisibility
6:00 AM
Dec 18
34 °FFog.1 mph100%30.24 "Hg1 mi
5:00 AM34 °FFog.6 mph100%30.24 "Hg2 mi
4:00 AM34 °FFog.3 mph100%30.24 "Hg2 mi
3:00 AM34 °FFog.3 mph100%30.27 "Hg2 mi
2:00 AM34 °FFog.6 mph100%30.30 "Hg2 mi
1:00 AM34 °FFog.3 mph100%30.33 "Hg2 mi
12:00 AM32 °FIce fog.6 mph100%30.33 "Hg2 mi
11:00 PM
Dec 17
34 °FFog.6 mph100%30.30 "Hg2 mi
10:00 PM34 °FSnow showers. Fog.3 mph100%30.33 "Hg2 mi
9:00 PM32 °FHail. Ice fog.3 mph100%30.33 "Hg2 mi
8:00 PM34 °FHail. Fog.3 mph100%30.33 "Hg3 mi
7:00 PM34 °FFog.3 mph100%30.30 "Hg3 mi
6:00 PM34 °FFog.3 mph100%30.30 "Hg3 mi
5:00 PM34 °FFog.3 mph93%30.27 "Hg3 mi
4:00 PM34 °FFog.6 mph93%30.27 "Hg3 mi
3:00 PM34 °FMore clouds than sun.6 mph87%30.30 "Hg4 mi
2:00 PM34 °FMore clouds than sun.6 mph87%30.33 "HgN/A
1:00 PM32 °FIce fog.8 mph100%30.39 "Hg3 mi
12:00 PM32 °FIce fog.8 mph93%30.42 "Hg3 mi
11:00 AM32 °FMore clouds than sun.8 mph93%30.45 "HgN/A
10:00 AM32 °FDrizzle. More clouds than sun.8 mph93%30.45 "Hg5 mi
9:00 AM30 °FDrizzle. More clouds than sun.6 mph100%30.45 "Hg6 mi
8:00 AM30 °FMore clouds than sun.8 mph100%30.42 "Hg6 mi
7:00 AM30 °FMostly cloudy.8 mph100%30.42 "Hg5 mi
Weather by CustomWeather, © 2014

See weather overviewHow to use our weather pages